Location: Colorado Springs
(38.8340°N, 104.8210°W)
Time: 14:13:07
(UTC-06:00)

Tiangong 2 - Pass Details

Date: 13 October 2017
Orbit: 388 x 392 km, 42.8° (Epoch: 18 October)

Event Time Altitude Azimuth Distance (km) Brightness Sun altitude
Exits shadow 05:25:52 43° 11° (N) 561 1.9 -20.4°
Drops below altitude 10° 05:28:38 10° 65° (ENE) 1,422 5.0 -19.9°
Sets 05:30:47 0° 72° (ENE) 2,279 6.5 -19.5°
